FW8114 Weather Reports


time (UTC)temp
C
wind
direction
speed
KPH
gust
KPH
rain 1hr
cm
rain 24hr
cm
rain mn
cm
humidity
%
barometer
mb
20260503220452 16 238 6.4 8.0 0.00 0.00 0.00 31 1011.7
20260503215948 16 301 4.8 4.8 0.00 0.00 0.00 32 1011.5
20260503215445 16 233 4.8 9.7 0.00 0.00 0.00 33 1011.6
20260503214943 16 290 3.2 8.0 0.00 0.00 0.00 31 1011.7
20260503214441 15 238 8.0 11.3 0.00 0.00 0.00 30 1011.7
20260503213938 15 315 4.8 8.0 0.00 0.00 0.00 30 1011.6
20260503213436 15 280 12.9 17.7 0.00 0.00 0.00 31 1011.6
20260503212932 16 335 9.7 14.5 0.00 0.00 0.00 32 1011.5
20260503212430 15 325 16.1 24.1 0.00 0.00 0.00 30 1011.5
20260503211927 16 281 4.8 4.8 0.00 0.00 0.00 33 1011.5
20260503211424 15 262 8.0 11.3 0.00 0.00 0.00 32 1011.6
20260503210919 15 318 1.6 8.0 0.00 0.00 0.00 33 1011.8
20260503210416 15 324 6.4 9.7 0.00 0.00 0.00 32 1011.6
20260503205910 15 293 11.3 14.5 0.00 0.00 0.00 30 1011.6
20260503205408 15 226 9.7 11.3 0.00 0.00 0.00 32 1011.6
20260503204904 15 8 6.4 8.0 0.00 0.00 0.00 32 1011.7
20260503204401 15 309 14.5 17.7 0.00 0.00 0.00 31 1011.6
20260503203859 15 264 16.1 20.9 0.00 0.00 0.00 31 1011.6
20260503203356 15 323 11.3 17.7 0.00 0.00 0.00 32 1011.6
20260503202852 15 251 11.3 16.1 0.00 0.00 0.00 32 1011.8
20260503202351 15 302 9.7 14.5 0.00 0.00 0.00 33 1011.8
20260503201849 15 335 17.7 20.9 0.00 0.00 0.00 31 1011.8
20260503201345 15 331 11.3 12.9 0.00 0.00 0.00 30 1011.8
20260503200843 15 282 4.8 8.0 0.00 0.00 0.00 33 1011.8
20260503200338 14 315 16.1 25.7 0.00 0.00 0.00 33 1011.9
20260503195836 14 1 14.5 20.9 0.00 0.00 0.00 32 1012.0
20260503195332 15 350 12.9 17.7 0.00 0.00 0.00 31 1012.0
20260503194830 15 294 17.7 24.1 0.00 0.00 0.00 32 1012.2
20260503194326 15 238 1.6 3.2 0.00 0.00 0.00 32 1011.9
20260503193822 15 216 4.8 8.0 0.00 0.00 0.00 34 1012.0
20260503193318 15 338 6.4 8.0 0.00 0.00 0.00 32 1012.0
20260503192814 15 233 11.3 16.1 0.00 0.00 0.00 33 1012.3
20260503192310 15 232 12.9 14.5 0.00 0.00 0.00 33 1012.2
20260503191806 14 332 19.3 22.5 0.00 0.00 0.00 31 1012.2
20260503191303 14 354 4.8 9.7 0.00 0.00 0.00 36 1012.2
20260503190800 14 285 16.1 20.9 0.00 0.00 0.00 31 1012.2
20260503190257 14 328 17.7 24.1 0.00 0.00 0.00 34 1012.3
20260503185754 14 317 16.1 20.9 0.00 0.00 0.00 33 1012.3
20260503185250 14 323 14.5 20.9 0.00 0.00 0.00 35 1012.4
20260503184744 13 290 3.2 4.8 0.00 0.00 0.00 34 1012.7
20260503184241 14 245 9.7 12.9 0.00 0.00 0.00 37 1012.3
20260503183737 14 252 14.5 24.1 0.00 0.00 0.00 34 1012.5
20260503183235 14 318 22.5 32.2 0.00 0.00 0.00 33 1012.7
20260503182732 14 322 27.4 33.8 0.00 0.00 0.00 36 1012.7
20260503182231 13 300 8.0 11.3 0.00 0.00 0.00 37 1012.7
20260503181728 13 266 12.9 16.1 0.00 0.00 0.00 33 1012.7
20260503181225 13 320 17.7 24.1 0.00 0.00 0.00 35 1012.5
20260503180721 13 307 9.7 12.9 0.00 0.00 0.00 36 1012.7
20260503180219 13 288 8.0 11.3 0.00 0.00 0.00 36 1012.7
20260503175715 13 341 9.7 11.3 0.00 0.00 0.00 37 1012.8
20260503175214 13 347 25.7 33.8 0.00 0.00 0.00 35 1012.8
20260503174709 13 317 12.9 17.7 0.00 0.00 0.00 39 1012.9
20260503174207 12 307 8.0 11.3 0.00 0.00 0.00 41 1012.8
20260503173707 12 351 12.9 16.1 0.00 0.00 0.00 38 1013.1
20260503173204 12 278 12.9 14.5 0.00 0.00 0.00 41 1013.0
20260503172701 12 316 11.3 14.5 0.00 0.00 0.00 40 1012.9
20260503172158 12 298 8.0 9.7 0.00 0.00 0.00 42 1013.0
20260503171654 11 287 8.0 9.7 0.00 0.00 0.00 42 1013.3
20260503171152 12 311 20.9 24.1 0.00 0.00 0.00 40 1013.2
20260503170649 12 346 11.3 16.1 0.00 0.00 0.00 41 1013.2
20260503170145 11 343 4.8 8.0 0.00 0.00 0.00 43 1013.4
20260503160107 11 265 12.9 16.1 0.00 0.00 0.00 47 1013.6
20260503150537 9 297 8.0 12.9 0.00 0.00 0.00 47 1014.2
20260503130927 8 271 4.8 9.7 0.00 0.00 0.00 54 1013.9
20260503130424 8 267 9.7 12.9 0.00 0.00 0.00 56 1014.1
20260503110326 6 281 4.8 4.8 0.00 0.00 0.00 63 1013.3
20260503100252 6 350 8.0 11.3 0.00 0.00 0.00 60 1012.7
20260503090212 7 23 1.6 3.2 0.00 0.00 0.00 57 1012.2
20260503081138 7 268 0.0 0.0 0.00 0.00 0.00 59 1011.8
20260503080635 7 256 1.6 1.6 0.00 0.00 0.00 59 1011.9
20260503080132 7 267 0.0 0.0 0.00 0.00 0.00 58 1011.9
20260503072609 7 237 0.0 0.0 0.00 0.00 0.00 57 1011.7
20260503072106 8 314 3.2 3.2 0.00 0.00 0.00 58 1011.9
20260503071602 8 252 0.0 0.0 0.00 0.00 0.00 57 1011.7
20260503071059 8 320 6.4 8.0 0.00 0.00 0.00 56 1011.8
20260503070555 8 272 1.6 3.2 0.00 0.00 0.00 55 1011.7
20260503055014 8 212 0.0 0.0 0.00 0.00 0.00 59 1011.8
20260503054510 8 231 0.0 0.0 0.00 0.00 0.00 57 1012.0
20260503054008 8 234 0.0 0.0 0.00 0.00 0.00 55 1011.9
20260503053506 8 317 3.2 3.2 0.00 0.00 0.00 54 1012.1
20260503053003 8 260 0.0 1.6 0.00 0.00 0.00 54 1012.0
20260503052500 8 243 1.6 3.2 0.00 0.00 0.00 53 1012.0
20260503051956 8 6 1.6 3.2 0.00 0.00 0.00 55 1012.1
20260503051452 8 287 3.2 4.8 0.00 0.00 0.00 53 1012.1
20260503050949 8 291 3.2 3.2 0.00 0.00 0.00 53 1012.0
20260503050445 8 253 0.0 0.0 0.00 0.00 0.00 54 1012.3
20260503045943 9 275 1.6 1.6 0.00 0.00 0.00 52 1012.3
20260503045440 9 243 0.0 0.0 0.00 0.00 0.00 55 1012.1
20260503044937 8 283 1.6 3.2 0.00 0.00 0.00 53 1012.2
20260503044433 9 271 1.6 3.2 0.00 0.00 0.00 54 1012.2
20260503043931 9 313 1.6 3.2 0.00 0.00 0.00 54 1012.4
20260503043427 8 281 1.6 3.2 0.00 0.00 0.00 55 1012.4
20260503042924 8 311 1.6 3.2 0.00 0.00 0.00 56 1012.4
20260503042421 8 234 1.6 1.6 0.00 0.00 0.00 59 1012.5
20260503041917 7 241 0.0 0.0 0.00 0.00 0.00 64 1012.5
20260503041414 7 232 0.0 0.0 0.00 0.00 0.00 65 1012.5
20260503040912 6 241 0.0 0.0 0.00 0.00 0.00 69 1012.5
20260503040409 6 237 0.0 0.0 0.00 0.00 0.00 75 1012.6
20260503035906 5 234 0.0 0.0 0.00 0.00 0.00 77 1012.6
20260503035403 5 233 0.0 0.0 0.00 0.00 0.00 79 1012.4
20260503034900 5 233 0.0 0.0 0.00 0.00 0.00 79 1012.4
20260503034358 5 233 0.0 0.0 0.00 0.00 0.00 79 1012.6
20260503033854 6 231 0.0 0.0 0.00 0.00 0.00 79 1012.5
20260503033352 6 231 0.0 0.0 0.00 0.00 0.00 78 1012.4
20260503032850 6 230 0.0 0.0 0.00 0.00 0.00 79 1012.4
20260503032349 6 230 0.0 0.0 0.00 0.00 0.00 79 1012.5
20260503031846 6 225 0.0 0.0 0.00 0.00 0.00 77 1012.3
20260503031343 6 235 0.0 0.0 0.00 0.00 0.00 74 1012.2
20260503030839 6 235 0.0 0.0 0.00 0.00 0.00 72 1012.2
20260503030336 6 235 0.0 0.0 0.00 0.00 0.00 74 1012.5
20260503025833 7 240 0.0 0.0 0.00 0.00 0.00 73 1012.5
20260503025330 6 240 0.0 0.0 0.00 0.00 0.00 76 1012.4
20260503024827 6 237 0.0 0.0 0.00 0.00 0.00 75 1012.5
20260503024324 7 242 0.0 0.0 0.00 0.00 0.00 75 1012.8
20260503023820 7 235 0.0 0.0 0.00 0.00 0.00 74 1012.6
20260503023318 7 234 0.0 0.0 0.00 0.00 0.00 73 1012.6
20260503022815 7 237 0.0 0.0 0.00 0.00 0.00 74 1012.4
20260503022314 8 248 0.0 0.0 0.00 0.00 0.00 76 1012.5
20260503021811 8 252 0.0 1.6 0.00 0.00 0.00 73 1012.4
20260503021307 8 234 0.0 0.0 0.00 0.00 0.00 70 1012.5
20260503020805 8 234 0.0 0.0 0.00 0.00 0.00 68 1012.5
20260503020303 8 238 0.0 0.0 0.00 0.00 0.00 67 1012.4
20260503015758 8 234 0.0 0.0 0.00 0.00 0.00 69 1012.5
20260503015256 8 234 0.0 0.0 0.00 0.00 0.00 69 1012.3
20260503014751 8 234 0.0 0.0 0.00 0.00 0.00 68 1012.4
20260503014249 9 237 0.0 0.0 0.00 0.00 0.00 66 1012.5
20260503013746 9 242 0.0 0.0 0.00 0.00 0.00 69 1012.6
20260503013244 9 239 0.0 0.0 0.00 0.00 0.00 65 1012.5
20260503012741 8 245 0.0 0.0 0.00 0.00 0.00 64 1012.6
20260503012238 8 233 0.0 0.0 0.00 0.00 0.00 66 1012.5
20260503011735 8 233 0.0 0.0 0.00 0.00 0.00 68 1012.5
20260503011232 9 233 0.0 0.0 0.00 0.00 0.00 69 1012.4
20260503010728 9 234 0.0 0.0 0.00 0.00 0.00 68 1012.3
20260503010225 10 236 0.0 0.0 0.00 0.00 0.00 67 1012.4
20260503005723 10 234 0.0 0.0 0.00 0.00 0.00 64 1012.2
20260503005220 10 234 0.0 0.0 0.00 0.00 0.00 64 1012.2
20260503004716 10 242 0.0 0.0 0.00 0.00 0.00 62 1011.8
20260503004214 10 239 0.0 0.0 0.00 0.00 0.00 55 1011.9
20260503003711 10 234 0.0 0.0 0.00 0.00 0.00 54 1011.7
20260503003208 10 236 0.0 0.0 0.00 0.00 0.00 54 1011.7
20260503002705 11 235 0.0 0.0 0.00 0.00 0.00 52 1011.7
20260503002202 11 238 0.0 0.0 0.00 0.00 0.00 49 1011.7
20260503001657 11 237 0.0 0.0 0.00 0.00 0.00 46 1011.7
20260503001154 11 234 0.0 0.0 0.00 0.00 0.00 46 1011.8
20260503000652 12 237 0.0 0.0 0.00 0.00 0.00 46 1011.7
20260503000149 12 246 0.0 0.0 0.00 0.00 0.00 43 1011.7
20260502235646 12 271 1.6 1.6 0.00 0.00 0.00 42 1011.7
20260502235144 12 338 4.8 4.8 0.00 0.00 0.00 43 1011.4
20260502234639 12 296 3.2 4.8 0.00 0.00 0.00 42 1011.5
20260502234137 12 247 0.0 0.0 0.00 0.00 0.00 44 1011.5
20260502233633 13 240 1.6 1.6 0.00 0.00 0.00 44 1011.6
20260502233130 13 249 0.0 0.0 0.00 0.00 0.00 42 1011.6
20260502232625 13 243 3.2 3.2 0.00 0.00 0.00 42 1011.7
20260502232123 13 285 1.6 3.2 0.00 0.00 0.00 42 1011.4
20260502231620 13 254 3.2 3.2 0.00 0.00 0.00 41 1011.6
20260502231118 13 293 3.2 3.2 0.00 0.00 0.00 41 1011.4
20260502230616 13 248 0.0 0.0 0.00 0.00 0.00 42 1011.4
20260502230114 13 309 3.2 3.2 0.00 0.00 0.00 40 1011.4
20260502225609 13 235 0.0 1.6 0.00 0.00 0.00 41 1011.5
20260502225107 13 235 1.6 3.2 0.00 0.00 0.00 40 1011.3
20260502224603 13 248 1.6 1.6 0.00 0.00 0.00 39 1011.3
20260502224100 13 238 1.6 1.6 0.00 0.00 0.00 39 1011.4
20260502223557 13 317 3.2 3.2 0.00 0.00 0.00 39 1011.1
20260502223056 13 295 4.8 4.8 0.00 0.00 0.00 38 1011.3
20260502222553 14 284 4.8 4.8 0.00 0.00 0.00 39 1011.0
20260502222049 15 255 4.8 4.8 0.00 0.00 0.00 38 1011.2
20260502221545 15 305 8.0 9.7 0.00 0.00 0.00 37 1011.1
20260502221042 16 311 8.0 9.7 0.00 0.00 0.00 36 1011.1